• In Germany
  • List of Countries
  • For 7 days
  • Water Temperature
  • Satellite Maps
  • Weather Map
  • Weather Widgets
  • user-avatar
    Login

    Hourly Weather Gorlice

    Today, 23 October, Monday

    Time Temperature Precipitation Wind Pressure Humidity
    00:00 +9°C° 0.6 mm 1 mps 730 mmHg 94%
    01:00 +9°C° 0.6 mm 1 mps 729 mmHg 95%
    02:00 +9°C° 1.2 mm 1 mps 729 mmHg 95%
    03:00 +9°C° 1.2 mm 1 mps 728 mmHg 96%
    04:00 +9°C° 1.2 mm 1 mps 728 mmHg 96%
    05:00 +8°C° 1.4 mm 2 mps 728 mmHg 96%
    06:00 +8°C° 1.4 mm 2 mps 728 mmHg 96%
    07:00 +7°C° 1.4 mm 3 mps 728 mmHg 96%
    08:00 +8°C° 1.5 mm 3 mps 727 mmHg 96%
    09:00 +8°C° 1.5 mm 3 mps 727 mmHg 95%
    10:00 +8°C° 1.5 mm 3 mps 727 mmHg 95%
    11:00 +7°C° 1.7 mm 3 mps 727 mmHg 95%
    12:00 +7°C° 1.7 mm 3 mps 727 mmHg 94%
    13:00 +6°C° 1.7 mm 4 mps 727 mmHg 94%
    14:00 +6°C° 1.4 mm 4 mps 728 mmHg 94%
    15:00 +7°C° 1.4 mm 3 mps 728 mmHg 94%
    16:00 +7°C° 1.4 mm 3 mps 728 mmHg 94%
    17:00 +7°C° 0.5 mm 3 mps 728 mmHg 94%
    18:00 +5°C° 0.5 mm 4 mps 729 mmHg 94%
    19:00 +5°C° 0.5 mm 4 mps 729 mmHg 94%
    20:00 +5°C° 0.4 mm 4 mps 730 mmHg 94%
    21:00 +5°C° 0.4 mm 4 mps 730 mmHg 94%
    22:00 +5°C° 0.4 mm 3 mps 731 mmHg 94%
    23:00 +5°C° 0.2 mm 4 mps 731 mmHg 93%

    Tomorrow, 24 October, Tuesday

    Time Temperature Precipitation Wind Pressure Humidity
    00:00 +4°C° 0.2 mm 4 mps 732 mmHg 93%
    01:00 +4°C° 0.2 mm 4 mps 732 mmHg 93%
    02:00 +4°C° 0.1 mm 4 mps 732 mmHg 93%
    03:00 +4°C° 0.1 mm 4 mps 733 mmHg 93%
    04:00 +4°C° 0.1 mm 4 mps 733 mmHg 92%
    05:00 +4°C° 0.1 mm 4 mps 734 mmHg 92%
    06:00 +4°C° 0.1 mm 4 mps 734 mmHg 92%
    07:00 +3°C° 0.1 mm 4 mps 735 mmHg 92%
    08:00 +4°C° 0.1 mm 4 mps 736 mmHg 90%
    09:00 +4°C° 0.1 mm 4 mps 736 mmHg 89%
    10:00 +4°C° 0.1 mm 4 mps 737 mmHg 88%
    11:00 +4°C° 0 mm 4 mps 737 mmHg 87%
    12:00 +5°C° 0 mm 3 mps 737 mmHg 86%
    13:00 +5°C° 0 mm 3 mps 737 mmHg 85%
    14:00 +5°C° 0 mm 3 mps 738 mmHg 86%
    15:00 +5°C° 0 mm 3 mps 738 mmHg 86%
    16:00 +5°C° 0 mm 3 mps 738 mmHg 87%
    17:00 +5°C° 0 mm 2 mps 739 mmHg 88%
    18:00 +5°C° 0 mm 2 mps 739 mmHg 89%
    19:00 +5°C° 0 mm 2 mps 740 mmHg 89%
    20:00 +5°C° 0 mm 2 mps 740 mmHg 90%
    21:00 +4°C° 0 mm 2 mps 740 mmHg 91%
    22:00 +5°C° 0 mm 1 mps 740 mmHg 91%
    23:00 +4°C° 0 mm 1 mps 740 mmHg 92%

    Day after tomorrow, 25 October, Wednesday

    Time Temperature Precipitation Wind Pressure Humidity
    00:00 +4°C° 0 mm 1 mps 740 mmHg 93%
    01:00 +3°C° 0 mm 1 mps 740 mmHg 94%
    02:00 +3°C° 0 mm 1 mps 740 mmHg 93%
    03:00 +3°C° 0 mm 1 mps 740 mmHg 93%
    04:00 +3°C° 0 mm 1 mps 740 mmHg 92%
    05:00 +3°C° 0 mm 1 mps 740 mmHg 92%
    06:00 +3°C° 0 mm 1 mps 740 mmHg 92%
    07:00 +3°C° 0 mm 1 mps 741 mmHg 91%
    08:00 +5°C° 0 mm 1 mps 741 mmHg 85%
    09:00 +7°C° 0 mm 1 mps 740 mmHg 78%
    10:00 +9°C° 0 mm 1 mps 740 mmHg 72%
    11:00 +10°C° 0 mm 1 mps 740 mmHg 68%
    12:00 +11°C° 0 mm 1 mps 740 mmHg 65%
    13:00 +12°C° 0 mm 1 mps 740 mmHg 61%
    14:00 +12°C° 0 mm 1 mps 740 mmHg 66%
    15:00 +11°C° 0 mm 1 mps 739 mmHg 70%
    16:00 +10°C° 0 mm 1 mps 739 mmHg 75%
    17:00 +9°C° 0 mm 1 mps 739 mmHg 76%
    18:00 +9°C° 0 mm 1 mps 740 mmHg 77%
    19:00 +9°C° 0 mm 1 mps 740 mmHg 79%
    20:00 +9°C° 0 mm 1 mps 740 mmHg 78%
    21:00 +8°C° 0 mm 2 mps 740 mmHg 78%
    22:00 +8°C° 0 mm 2 mps 740 mmHg 77%
    23:00 +8°C° 0 mm 2 mps 740 mmHg 79%

    26 October, Thursday

    Time Temperature Precipitation Wind Pressure Humidity
    00:00 +8°C° 0 mm 2 mps 740 mmHg 80%
    01:00 +8°C° 0 mm 2 mps 740 mmHg 81%
    02:00 +8°C° 0 mm 2 mps 740 mmHg 83%
    03:00 +8°C° 0 mm 2 mps 740 mmHg 85%
    04:00 +8°C° 0 mm 2 mps 740 mmHg 87%
    05:00 +8°C° 0 mm 2 mps 740 mmHg 88%
    06:00 +8°C° 0 mm 2 mps 740 mmHg 88%
    07:00 +8°C° 0 mm 2 mps 740 mmHg 88%
    08:00 +10°C° 0 mm 3 mps 740 mmHg 83%
    09:00 +11°C° 0 mm 3 mps 740 mmHg 78%
    10:00 +12°C° 0 mm 3 mps 740 mmHg 73%
    11:00 +13°C° 0 mm 3 mps 739 mmHg 70%
    12:00 +14°C° 0 mm 3 mps 739 mmHg 67%
    13:00 +16°C° 0 mm 3 mps 738 mmHg 64%
    14:00 +14°C° 0 mm 3 mps 738 mmHg 68%
    15:00 +13°C° 0 mm 3 mps 737 mmHg 73%
    16:00 +12°C° 0 mm 3 mps 737 mmHg 77%
    17:00 +11°C° 0 mm 3 mps 737 mmHg 80%
    18:00 +11°C° 0 mm 3 mps 737 mmHg 83%
    19:00 +10°C° 0 mm 3 mps 737 mmHg 87%
    20:00 +10°C° 0.1 mm 3 mps 736 mmHg 88%
    21:00 +10°C° 0.1 mm 2 mps 736 mmHg 89%
    22:00 +10°C° 0.1 mm 2 mps 736 mmHg 89%
    23:00 +10°C° 0.3 mm 2 mps 735 mmHg 90%

    27 October, Friday

    Time Temperature Precipitation Wind Pressure Humidity
    00:00 +10°C° 0.3 mm 2 mps 735 mmHg 91%
    01:00 +10°C° 0.3 mm 2 mps 734 mmHg 92%
    02:00 +10°C° 0.3 mm 2 mps 734 mmHg 91%
    03:00 +10°C° 0.3 mm 3 mps 733 mmHg 91%
    04:00 +10°C° 0.3 mm 3 mps 733 mmHg 90%
    05:00 +10°C° 0.3 mm 3 mps 732 mmHg 91%
    06:00 +10°C° 0.3 mm 2 mps 732 mmHg 92%
    07:00 +10°C° 0.3 mm 2 mps 731 mmHg 93%
    08:00 +12°C° 0.7 mm 2 mps 731 mmHg 90%
    09:00 +12°C° 0.7 mm 2 mps 731 mmHg 87%
    10:00 +12°C° 0.7 mm 3 mps 730 mmHg 85%
    11:00 +12°C° 1.1 mm 3 mps 730 mmHg 85%
    12:00 +11°C° 1.1 mm 3 mps 729 mmHg 86%
    13:00 +11°C° 1.1 mm 3 mps 729 mmHg 86%
    14:00 +10°C° 1.1 mm 3 mps 728 mmHg 88%
    15:00 +9°C° 1.1 mm 3 mps 728 mmHg 90%
    16:00 +8°C° 1.1 mm 3 mps 728 mmHg 91%
    17:00 +7°C° 0.4 mm 4 mps 728 mmHg 90%
    18:00 +7°C° 0.4 mm 4 mps 728 mmHg 89%
    19:00 +7°C° 0.4 mm 4 mps 728 mmHg 88%
    20:00 +6°C° 0.1 mm 4 mps 728 mmHg 88%
    21:00 +6°C° 0.1 mm 5 mps 728 mmHg 88%
    22:00 +6°C° 0.1 mm 5 mps 728 mmHg 87%
    23:00 +6°C° 0.1 mm 5 mps 728 mmHg 87%

    28 October, Saturday

    Time Temperature Precipitation Wind Pressure Humidity
    00:00 +6°C° 0.1 mm 5 mps 727 mmHg 87%
    01:00 +7°C° 0.1 mm 5 mps 727 mmHg 86%
    02:00 +6°C° 0.1 mm 5 mps 727 mmHg 86%
    03:00 +6°C° 0.1 mm 5 mps 727 mmHg 86%
    04:00 +6°C° 0.1 mm 4 mps 726 mmHg 87%
    05:00 +6°C° 0 mm 4 mps 726 mmHg 86%
    06:00 +6°C° 0 mm 4 mps 726 mmHg 86%
    07:00 +5°C° 0 mm 4 mps 726 mmHg 85%
    08:00 +6°C° 0 mm 4 mps 726 mmHg 82%
    09:00 +7°C° 0 mm 4 mps 726 mmHg 79%
    10:00 +7°C° 0 mm 4 mps 726 mmHg 75%
    11:00 +8°C° 0.4 mm 4 mps 725 mmHg 75%
    12:00 +8°C° 0.4 mm 4 mps 725 mmHg 74%
    13:00 +8°C° 0.4 mm 4 mps 724 mmHg 74%
    14:00 +8°C° 0.1 mm 3 mps 724 mmHg 76%
    15:00 +8°C° 0.1 mm 3 mps 724 mmHg 78%
    16:00 +7°C° 0.1 mm 2 mps 723 mmHg 81%
    17:00 +7°C° 0.1 mm 2 mps 724 mmHg 82%
    18:00 +7°C° 0.1 mm 2 mps 724 mmHg 84%
    19:00 +6°C° 0.1 mm 2 mps 724 mmHg 86%
    20:00 +6°C° 0.2 mm 2 mps 724 mmHg 87%
    21:00 +6°C° 0.2 mm 2 mps 725 mmHg 88%
    22:00 +6°C° 0.2 mm 2 mps 725 mmHg 89%
    23:00 +6°C° 0 mm 2 mps 725 mmHg 90%

    29 October, Sunday

    Time Temperature Precipitation Wind Pressure Humidity
    00:00 +6°C° 0 mm 2 mps 726 mmHg 92%
    01:00 +6°C° 0 mm 2 mps 726 mmHg 93%
    02:00 +6°C° 0 mm 2 mps 727 mmHg 93%
    03:00 +5°C° 0 mm 3 mps 727 mmHg 93%
    04:00 +5°C° 0 mm 3 mps 727 mmHg 93%
    05:00 +5°C° 0.1 mm 3 mps 728 mmHg 92%
    06:00 +5°C° 0.1 mm 3 mps 728 mmHg 92%
    07:00 +5°C° 0.1 mm 3 mps 729 mmHg 91%
    08:00 +5°C° 0.1 mm 4 mps 729 mmHg 88%
    09:00 +6°C° 0.1 mm 4 mps 730 mmHg 85%
    10:00 +6°C° 0.1 mm 5 mps 730 mmHg 82%
    11:00 +7°C° 0.1 mm 5 mps 730 mmHg 79%
    12:00 +7°C° 0.1 mm 5 mps 730 mmHg 76%
    13:00 +8°C° 0.1 mm 5 mps 730 mmHg 73%
    14:00 +7°C° 0.1 mm 4 mps 730 mmHg 75%
    15:00 +6°C° 0.1 mm 4 mps 730 mmHg 78%
    16:00 +7°C° 0.1 mm 3 mps 729 mmHg 80%
    17:00 +5°C° 0 mm 3 mps 729 mmHg 82%
    18:00 +5°C° 0 mm 3 mps 729 mmHg 84%
    19:00 +5°C° 0 mm 2 mps 729 mmHg 86%
    20:00 +4°C° 0.1 mm 3 mps 729 mmHg 85%
    21:00 +5°C° 0.1 mm 3 mps 729 mmHg 83%
    22:00 +5°C° 0.1 mm 3 mps 728 mmHg 81%
    23:00 +5°C° 0.2 mm 3 mps 728 mmHg 82%
    Show more